{"data":{"norad_id":59020,"epoch":"2026-05-25T00:53:36.004128Z","epoch_age_seconds":65055,"freshness":"FRESH","line1":"1 59020U 24037A   26145.03722227 -.00000377  00000+0  00000+0 0  9991","line2":"2 59020   4.2287 326.8118 0004052 107.3543 302.1673  1.00276291  8350","mean_motion":1.00276291,"eccentricity":0.0004052,"inclination_deg":4.2287,"raan_deg":326.8118,"arg_perigee_deg":107.3543,"mean_anomaly_deg":302.1673,"bstar":0,"rev_number":835,"period_min":1436.0323717996,"perigee_km":35768.247175558,"apogee_km":35802.416450684,"semimajor_km":42163.468813121,"source":"CELESTRAK","updated_at":"2026-05-25T13:38:14.144669Z"}}